Regional Weather Roundup
Issued by NWS

Home | Current Version | Previous Version | Graphics & Text | Print | Product List | Glossary On
Versions: 1 2 3 4 5 6 7 8 9 10 11 12 13 14 15 16 17 18 19 20 21 22 23 24 25 26 27 28 29 30 31 32 33 34 35 36 37 38 39 40 41 42 43 44 45 46 47 48 49 50
000
ASUS45 KPSR 311300
RWRAZ

ARIZONA HOURLY REGIONAL WEATHER ROUNDUP
NATIONAL WEATHER SERVICE PHOENIX AZ
600 AM MST MON AUG 31 2015

NOTE: FAIR INDICATES FEW OR NO CLOUDS BELOW 12,000 FEET WITH NO
SIGNIFICANT WEATHER AND/OR OBSTRUCTIONS TO VISIBILITY.

AZZ001>003-036-311400-
NORTHWEST ARIZONA

CITY           SKY/WX    TMP DP  RH WIND       PRES   REMARKS
KINGMAN        CLEAR     74  42  31 CALM      29.98R
$$

AZZ004>008-015-016-018-311400-
NORTH CENTRAL ARIZONA

CITY           SKY/WX    TMP DP  RH WIND       PRES   REMARKS
GRAND CANYON     N/A    N/A N/A N/A MISG      30.25R
WILLIAMS       CLOUDY    57  52  82 SE9       30.30R
PRESCOTT       MOCLDY    64  58  80 CALM      30.13S
FLAGSTAFF      NOT AVBL
PAYSON         CLEAR     64  57  77 CALM      30.16S
PAGE           MOCLDY    65  60  84 S5        30.10R
$$

AZZ009>014-017-311400-
NORTHEAST ARIZONA

CITY           SKY/WX    TMP DP  RH WIND       PRES   REMARKS
WINSLOW        NOT AVBL
SAINT JOHNS    PTCLDY    59  55  87 S3        30.21S
WINDOW ROCK    MOCLDY    57  51  80 SW3       30.27S
SHOW LOW       PTCLDY    52  50  93 NW3       30.26S
$$

AZZ023-311400-
GREATER PHOENIX AREA

CITY           SKY/WX    TMP DP  RH WIND       PRES   REMARKS
PHOENIX        PTCLDY    86  65  49 E7        29.83R
GLENDALE       PTCLDY    84  66  54 CALM      29.86
LUKE AFB       CLEAR     84  66  54 S1        29.84R
DEER VALLEY    CLEAR     85  62  46 SE6       29.86R
SCOTTSDALE     PTCLDY    85  64  49 CALM      29.88R
MESA-FALCON    PTCLDY    86  61  42 SE6       29.85
MESA-GATEWAY   PTCLDY    81  66  61 E5        29.88R
$$

AZZ027-028-311400-
SOUTHWEST MARICOPA COUNTY AND PINAL COUNTY

CITY           SKY/WX    TMP DP  RH WIND       PRES   REMARKS
CASA GRANDE    PTCLDY    82  63  51 CALM      29.87R
GILA BEND      FAIR      85  62  45 SE8       29.80R
$$

AZZ503-504-507>509-311400-
SOUTHEAST ARIZONA

CITY           SKY/WX    TMP DP  RH WIND       PRES   REMARKS
TUCSON         PTCLDY    76  61  59 SE9       30.00R
DAVIS-MONTHAN  CLOUDY    75  60  59 SE8       29.98R
RYAN FIELD     CLEAR     75  64  69 SE3       29.98
NOGALES        CLEAR     62  57  83 NE3       30.08R
SIERRA VISTA   CLEAR     66  54  65 VRB2      30.14R
SAFFORD        PTCLDY    72  61  68 SE3       30.00R
$$

AZZ020-021-025-026-031-311400-
SOUTHWEST ARIZONA

CITY           SKY/WX    TMP DP  RH WIND       PRES   REMARKS
YUMA           PTCLDY    85  55  35 NE3       29.74R
$$

CAZ031-033-041-043-047-048-061-311400-
SOUTHERN CALIFORNIA

CITY           SKY/WX    TMP DP  RH WIND       PRES   REMARKS
DOWNTOWN L.A.  CLOUDY    70  64  81 CALM      29.86R
L.A. AIRPORT   MOCLDY    69  64  84 E5        29.87R
SAN DIEGO      CLOUDY    70  62  76 SW8       29.88R
BURBANK        CLEAR     69  63  81 S3        29.88R
ONTARIO        PTCLDY    68  60  75 SW5       29.87R
RIVERSIDE      CLEAR     67  61  81 CALM      29.88R
PALM SPRINGS   PTCLDY    80  58  46 VRB3      29.77R
EL CENTRO NAS  MOCLDY    82  44  26 S7        29.75R
IMPERIAL       MOCLDY    87  45  23 SW8       29.72R
BLYTHE         MOCLDY    84  49  29 S7        29.75R
$$

NVZ020-UTZ003-311400-
SOUTHERN NEVADA-UTAH

CITY           SKY/WX    TMP DP  RH WIND       PRES   REMARKS
LAS VEGAS      NOT AVBL
SALT LAKE CITY PTCLDY    63  40  42 W5        30.06R
$$

NMZ009-TXZ055-311400-
NEW MEXICO-WEST TEXAS

CITY           SKY/WX    TMP DP  RH WIND       PRES   REMARKS
ALBUQUERQUE    PTCLDY    68  50  52 W3        30.18R
EL PASO        PTCLDY    69  51  52 E5        30.06R
$$


........................KEY........................
SKY/WX - SKY CONDITION/WEATHER
TMP    - TEMPERATURE IN FAHRENHEIT
DP     - DEW POINT IN FAHRENHEIT
RH     - RELATIVE HUMIDITY IN PERCENT
WIND   - DIRECTION AND SPEED IN MILES PER HOUR (MPH)
VRB    - VARIABLE WIND DIRECTION
PRES   - MEAN SEA LEVEL PRESSURE IN INCHES OF MERCURY
         F - FALLING PRESSURE   R - RISING PRESSURE
         S - STEADY PRESSURE
VSB    - VISIBILITY IN MILES
HX     - HEAT INDEX IN FAHRENHEIT
WCI    - WIND CHILL INDEX IN FAHRENHEIT
TC     - TEMPERATURE IN CELSIUS WHICH IS ALSO KNOWN AS
         TEMPERATURE IN CENTIGRADE
AFB    - AIR FORCE BASE
         LUKE AFB IS LUKE AIR FORCE BASE
         DAVIS-MONTHAN IS DAVIS-MONTHAN AIR FORCE BASE
NAS    - NAVAL AIR STATION
         EL CENTRO NAS IS EL CENTRO NAVAL AIR STATION
N/A    - NOT AVAILABLE




USA.gov is the U.S. government's official web portal to all federal, state and local government web resources and services.